Niagara Falls, NY

12:11 AM EDT on April 28, 2017 (GMT -0400)
Niagara Falls International

Weather History for KIAG - December, 2013

Change the Weather History Date:

Sunday, December 15, 2013

  Actual Average Record
Temperature  
Mean Temperature 20 °F -  
Max Temperature 25 °F 35 °F 55 °F (2011)
Min Temperature 15 °F 23 °F 3 °F (2000)
Degree Days  
Heating Degree Days 45    
Moisture  
Dew Point 15 °F    
Average Humidity 84    
Maximum Humidity 93    
Minimum Humidity 68    
Precipitation  
Precipitation 0.05 in - - ()
Snow  
Snow 0.00 in - - ()
Snow Depth 8.00 in    
Sea Level Pressure  
Sea Level Pressure 29.72 in    
Wind  
Wind Speed 11 mph (West)    
Max Wind Speed 23 mph    
Max Gust Speed 32 mph    
Visibility 5 miles    
Events Snow    
Averages and records for this station are not official NWS values.
T = Trace of Precipitation, MM = Missing Value Source: NWS Daily Summary

Daily Weather History Graph

Daily Weather History Graph

Search for Another Location

Airport or City:

Trip Planner

Search our weather history database for the weather conditions in past years. The results will help you decide how hot, cold, wet, or windy it might be!

Date:

Astronomy

Dec. 15, 2013 Rise Set
Actual Time 7:40 AM EST 4:41 PM EST
Civil Twilight 7:08 AM EST 5:13 PM EST
Nautical Twilight 6:32 AM EST 5:49 PM EST
Astronomical Twilight 5:57 AM EST 6:24 PM EST
Moon 3:46 PM EST (12/15) 5:53 AM EST (12/15)
Length of Visible Light 10h 05m
Length of Day
9h 00m
Waxing Gibbous, 97% of the Moon is Illuminated
Dec 15
Waxing Gibbous
Dec 17
Full
Dec 25
Last Quarter
Jan 1
New
Jan 7
First Quarter

Hourly Weather History & Observations

Time (EST) Temp. Windchill Dew Point Humidity Pressure Visibility Wind Dir Wind Speed Gust Speed Precip Events Conditions
12:05 AM 19.4 °F 6.0 °F 15.8 °F 86% 29.70 in 0.8 mi East 13.8 mph - 0.00 in Snow Light Snow
12:13 AM 19.4 °F 6.0 °F 15.8 °F 86% 29.69 in 0.8 mi East 13.8 mph - 0.00 in Snow Light Snow
12:22 AM 19.4 °F 7.2 °F 15.8 °F 86% 29.69 in 1.0 mi East 11.5 mph - 0.00 in Snow Light Snow
12:33 AM 19.4 °F 7.9 °F 15.8 °F 86% 29.68 in 0.8 mi East 10.4 mph - 0.00 in Snow Light Snow
12:41 AM 19.4 °F 8.6 °F 15.8 °F 86% 29.68 in 1.0 mi East 9.2 mph - 0.00 in Snow Light Snow
12:53 AM 19.0 °F 8.2 °F 16.0 °F 88% 29.73 in 1.0 mi East 9.2 mph - 0.00 in Snow Light Snow
1:00 AM 19.4 °F 9.5 °F 15.8 °F 86% 29.67 in 0.8 mi East 8.1 mph - 0.00 in Snow Light Snow
1:17 AM 19.4 °F 11.5 °F 17.6 °F 93% 29.66 in 1.0 mi East 5.8 mph - 0.00 in Snow Light Snow
1:36 AM 19.4 °F 9.5 °F 17.6 °F 93% 29.64 in 0.8 mi East 8.1 mph - 0.00 in Snow Light Snow
1:53 AM 19.9 °F 12.1 °F 17.1 °F 89% 29.71 in 0.8 mi East 5.8 mph - 0.00 in Snow Light Snow
2:09 AM 19.4 °F 10.4 °F 17.6 °F 93% 29.64 in 1.0 mi East 6.9 mph - 0.00 in Snow Light Snow
2:26 AM 19.4 °F 10.4 °F 17.6 °F 93% 29.63 in 1.2 mi ESE 6.9 mph - 0.00 in Snow Light Snow
2:39 AM 21.2 °F 14.9 °F 17.6 °F 86% 29.62 in 1.5 mi East 4.6 mph - 0.02 in Snow Light Snow
2:53 AM 21.0 °F 16.2 °F 18.0 °F 88% 29.68 in 1.2 mi SE 3.5 mph - 0.03 in Snow Light Snow
3:01 AM 21.2 °F - 17.6 °F 86% 29.62 in 1.0 mi Calm Calm - 0.00 in Snow Light Snow
3:11 AM 19.4 °F 12.8 °F 17.6 °F 93% 29.63 in 1.0 mi WNW 4.6 mph - 0.02 in Snow Light Snow
3:44 AM 21.2 °F 14.9 °F 17.6 °F 86% 29.63 in 1.2 mi WNW 4.6 mph - 0.02 in Snow Light Snow
3:53 AM 21.0 °F 12.4 °F 18.0 °F 88% 29.69 in 1.5 mi WNW 6.9 mph - 0.02 in Snow Light Snow
4:29 AM 19.4 °F 11.5 °F 17.6 °F 93% 29.62 in 2.5 mi NW 5.8 mph - 0.00 in Snow Light Snow
4:44 AM 19.4 °F 14.3 °F 17.6 °F 93% 29.62 in 2.0 mi WNW 3.5 mph - 0.00 in Snow Light Snow
4:50 AM 17.6 °F 10.7 °F 15.8 °F 93% 29.62 in 3.0 mi West 4.6 mph - 0.00 in   Overcast
4:53 AM 17.1 °F 8.7 °F 15.1 °F 92% 29.69 in 6.0 mi West 5.8 mph - 0.00 in   Mostly Cloudy
5:12 AM 17.6 °F 9.3 °F 15.8 °F 93% 29.63 in 3.0 mi West 5.8 mph - N/A   Mostly Cloudy
5:21 AM 19.4 °F 8.6 °F 15.8 °F 86% 29.64 in 4.0 mi WNW 9.2 mph - N/A   Mostly Cloudy
5:34 AM 23.0 °F 9.2 °F 19.4 °F 86% 29.65 in 8.0 mi NW 17.3 mph 23.0 mph 0.00 in   Overcast
5:53 AM 21.9 °F 6.5 °F 19.0 °F 89% 29.73 in 2.5 mi NNW 20.7 mph - 0.00 in   Overcast
6:09 AM 21.2 °F 7.8 °F 19.4 °F 93% 29.67 in 9.0 mi NNW 15.0 mph - 0.00 in   Overcast
6:53 AM 19.0 °F 7.5 °F 17.1 °F 92% 29.76 in 8.0 mi NW 10.4 mph - 0.00 in   Overcast
7:03 AM 17.6 °F 3.7 °F 15.8 °F 93% 29.70 in 7.0 mi WNW 13.8 mph - N/A   Overcast
7:53 AM 17.1 °F 5.0 °F 14.0 °F 88% 29.79 in 6.0 mi West 10.4 mph - N/A   Overcast
8:53 AM 16.0 °F 5.3 °F 14.0 °F 92% 29.81 in 6.0 mi West 8.1 mph - N/A   Overcast
9:06 AM 15.8 °F 4.2 °F 14.0 °F 93% 29.74 in 6.0 mi West 9.2 mph - N/A   Overcast
9:19 AM 15.8 °F 4.2 °F 12.2 °F 86% 29.75 in 5.0 mi WSW 9.2 mph - 0.00 in Snow Light Snow
9:42 AM 15.8 °F 3.4 °F 12.2 °F 86% 29.74 in 5.0 mi West 10.4 mph - 0.00 in Snow Light Snow
9:53 AM 16.0 °F 4.4 °F 12.0 °F 84% 29.81 in 7.0 mi West 9.2 mph - 0.00 in Snow Light Snow
10:53 AM 16.0 °F 5.3 °F 10.9 °F 81% 29.79 in 4.0 mi West 8.1 mph - 0.00 in Snow Light Snow
11:07 AM 15.8 °F 5.1 °F 10.4 °F 79% 29.73 in 7.0 mi West 8.1 mph - 0.00 in Snow Light Snow
11:40 AM 17.6 °F 5.0 °F 12.2 °F 79% 29.72 in 7.0 mi West 11.5 mph - 0.00 in Snow Light Snow
11:53 AM 18.0 °F 6.1 °F 12.9 °F 81% 29.79 in 7.0 mi West 10.4 mph - 0.00 in Snow Light Snow
12:20 PM 19.4 °F 5.5 °F 12.2 °F 74% 29.72 in 2.5 mi West 15.0 mph - 0.00 in Snow Light Snow
12:39 PM 19.4 °F 5.5 °F 12.2 °F 74% 29.71 in 3.0 mi West 15.0 mph - 0.00 in Snow Light Snow
12:53 PM 19.9 °F 6.2 °F 14.0 °F 78% 29.77 in 3.0 mi West 15.0 mph - N/A Snow Light Snow
1:53 PM 21.9 °F 9.8 °F 15.1 °F 75% 29.76 in 10.0 mi West 12.7 mph - 0.00 in Snow Light Snow
2:08 PM 21.2 °F 9.5 °F 15.8 °F 80% 29.70 in 10.0 mi West 11.5 mph - 0.00 in Snow Light Snow
2:20 PM 21.2 °F 8.9 °F 15.8 °F 80% 29.70 in 10.0 mi West 12.7 mph - 0.00 in   Overcast
2:53 PM 21.9 °F 11.0 °F 15.1 °F 75% 29.75 in 10.0 mi West 10.4 mph - 0.00 in   Mostly Cloudy
3:53 PM 24.1 °F 12.5 °F 17.1 °F 75% 29.75 in 10.0 mi West 12.7 mph - N/A   Overcast
4:53 PM 25.0 °F 12.2 °F 19.0 °F 78% 29.76 in 8.0 mi West 16.1 mph - N/A   Overcast
5:00 PM 24.8 °F 12.4 °F 19.4 °F 80% 29.71 in 7.0 mi West 15.0 mph - 0.00 in Snow Light Snow
5:53 PM 24.1 °F 11.0 °F 18.0 °F 77% 29.76 in 6.0 mi West 16.1 mph 26.5 mph 0.00 in Snow Light Snow
6:22 PM 24.8 °F 10.7 °F 17.6 °F 74% 29.72 in 2.0 mi West 19.6 mph - 0.00 in Snow Light Snow
6:53 PM 23.0 °F 8.0 °F 17.1 °F 78% 29.79 in 3.0 mi West 20.7 mph 27.6 mph 0.00 in Snow Light Snow
7:46 PM 21.2 °F 4.9 °F 12.2 °F 68% 29.76 in 10.0 mi West 23.0 mph 29.9 mph 0.00 in   Scattered Clouds
7:53 PM 21.0 °F 5.4 °F 12.0 °F 68% 29.83 in 10.0 mi West 20.7 mph 29.9 mph 0.00 in   Scattered Clouds
8:53 PM 19.0 °F 3.2 °F 10.0 °F 68% 29.86 in 10.0 mi West 19.6 mph 29.9 mph N/A   Scattered Clouds
9:53 PM 17.6 °F 0.5 °F 8.6 °F 68% 29.87 in 10.0 mi West 21.9 mph 31.1 mph N/A   Partly Cloudy
10:53 PM 17.1 °F 1.5 °F 8.1 °F 68% 29.90 in 10.0 mi West 17.3 mph 32.2 mph N/A   Scattered Clouds
11:53 PM 16.0 °F -1.3 °F 7.0 °F 68% 29.93 in 9.0 mi West 20.7 mph 31.1 mph N/A   Clear